TIME,DELAY(SENSOR),PRES,T(CTD),SAL,OXYGEN,RAWTEMP,T(OPTODE),TCPHASE,FLUOR,BETA(BETA700),BETA(BETA412),BETA(BETA440),CDOM,C(CSC),ED(ED412.40),ED(ED444.00),ED(ED489.70),ED(ED554.30),LU(LU411.80),LU(LU443.40),LU(LU489.60),LU(LU554.10),COMP,TILTX,TILTX(TILTY),CHECK
1363643293,5807,496.2000122070312500,6.6595997810363770,34.1099014282226560,83.7398529052734400,598.6364135742188000,6.6283068656921390,48.4577407836914060,52,104,87,81,77,14699,2147745956,2147426020,2148006930,2147874587,2147631542,2147081069,2148247213,2147195693,3351,4,13,23930
1363643468,5809,484.6199951171875000,6.8543000221252440,34.1105003356933600,91.0338668823242200,592.2872924804688000,6.8331341743469240,47.5385398864746100,52,104,86,80,78,14703,2147746249,2147424804,2148007396,2147874761,2147630811,2147075858,2148243858,2147199597,1276,4,13,58715
1363643606,5809,473.7200012207031000,7.0682001113891600,34.1016998291015600,96.5803680419921900,585.7431030273438000,7.0438590049743650,46.8357505798339840,51,103,87,80,78,14699,2147747062,2147421293,2148004845,2147872228,2147630537,2147074194,2148248182,2147195108,1593,4,13,31868
1363643733,5806,462.0799865722656000,7.2547001838684080,34.0984992980957000,103.9774017333984400,579.1022949218750000,7.2572960853576660,45.9519004821777340,51,102,88,79,76,14703,2147746788,2147426907,2148006628,2147873609,2147627273,2147082166,2148241563,2147198838,3533,3,13,19991
1363643850,5806,451.1900024414062500,7.5363998413085940,34.0936012268066400,112.2993011474609400,570.0914916992188000,7.5462698936462400,44.9639396667480500,50,102,87,80,76,14700,2147742043,2147423881,2148004397,2147872246,2147627026,2147080320,2148241133,2147200749,848,4,13,42353
1363643965,5808,440.2699890136719000,7.7325000762939450,34.0937995910644500,121.2347030639648400,564.2100219726562000,7.7345027923583980,44.0035209655761700,50,103,86,80,75,14707,2147743798,2147425993,2148005915,2147874806,2147627904,2147084214,2148240457,2147199716,1154,4,13,19711
1363644080,5809,429.2600097656250000,7.8431000709533690,34.0880012512207000,129.0834045410156200,561.3433837890625000,7.8261380195617680,43.2295188903808600,50,104,89,79,75,14702,2147742345,2147426166,2148007268,2147875282,2147626843,2147089051,2148239158,2147200795,583,3,13,15135
1363644198,5807,418.4100036621094000,8.1546001434326170,34.0870018005371100,136.7530059814453000,551.6420288085938000,8.1357440948486330,42.3827705383300800,50,103,88,79,75,14706,2147741732,2147426340,2148005476,2147873261,2147620854,2147085677,2148238208,2147199433,3438,4,13,49293
1363644325,5807,407.2399902343750000,8.3045997619628900,34.0866012573242200,142.7729034423828000,546.8997802734375000,8.2867946624755860,41.7840003967285160,50,104,88,80,74,14701,2147745124,2147427227,2148005293,2147873216,2147625325,2147088018,2148236562,2147202075,2801,3,13,24597
1363644454,5807,396.2699890136719000,8.4686002731323240,34.0876998901367200,152.4671020507812500,541.6021728515625000,8.4553241729736330,40.8958282470703100,50,105,89,80,75,14701,2147740635,2147425161,2148003081,2147876160,2147621888,2147094674,2148238308,2147203766,2640,4,13,14590
1363644581,5807,385.9700012207031000,8.7617998123168950,34.0900993347168000,158.5502014160156200,532.2979736328125000,8.7507686614990230,40.2544593811035160,50,103,85,81,73,14702,2147742189,2147424438,2148006601,2147876416,2147621101,2147091245,2148232054,2147205284,3089,3,13,7963
1363644720,5810,374.8200073242187500,9.2142000198364260,34.0993003845214840,169.1217041015625000,517.3585815429688000,9.2237501144409180,39.2000999450683600,50,103,89,80,73,14706,2147739501,2147427602,2148007314,2147874121,2147616329,2147089590,2148230537,2147204571,45,4,13,41292
1363644862,5810,363.2600097656250000,9.4028997421264650,34.1044998168945300,179.8874969482422000,511.9751892089844000,9.3937778472900390,38.3425598144531250,49,105,88,79,73,14698,2147737051,2147426825,2148006473,2147873636,2147618130,2147098889,2148229083,2147204406,2150,4,14,20764
1363644989,5809,352.3299865722656000,9.6106996536254880,34.1074981689453100,183.4414062500000000,504.9841003417969000,9.6142730712890620,37.9795112609863300,50,104,86,79,71,14698,2147738669,2147426953,2148006080,2147875008,2147614080,2147097764,2148229220,2147200896,2506,3,13,18407
1363645130,5806,341.9400024414062500,10.0662002563476560,34.1198997497558600,203.7957000732422000,491.1976013183594000,10.0480804443359380,36.4431686401367200,48,104,88,80,70,14709,2147734482,2147426413,2148011337,2147877485,2147612836,2147100434,2148228589,2147202752,1468,3,14,17472
1363645305,5809,331.5799865722656000,10.5549001693725590,34.1130981445312500,206.6528015136718800,474.6659851074219000,10.5665798187255860,35.9962806701660160,49,101,90,81,70,14708,2147736822,2147426806,2148004032,2147876324,2147612928,2147107145,2148223277,2147201499,993,3,14,43255
1363645489,5808,319.1499938964844000,11.2462997436523440,34.1195983886718750,207.0998992919922000,453.8569030761719000,11.2168102264404300,35.6279296875000000,49,102,85,80,69,14698,2147733129,2147425545,2148010870,2147875218,2147607908,2147104530,2148219154,2147202166,491,4,13,20468
1363645616,5810,308.5299987792969000,11.6444997787475590,34.1393013000488300,207.8150024414062500,440.4747924804687500,11.6336297988891600,35.3688201904296900,49,103,88,81,70,14702,2147732681,2147430500,2148015040,2147872566,2147606235,2147113261,2148227062,2147200118,1700,4,13,40410
1363645765,5811,293.8200073242187500,11.9498996734619140,34.1584014892578100,212.4295959472656200,428.7586059570312500,11.9977598190307620,34.9133605957031250,48,104,86,79,68,14696,2147728384,2147438061,2148041298,2147875757,2147603053,2147121042,2148231606,2147206500,2585,3,13,58924
1363645868,5808,282.4100036621094000,12.5805997848510740,34.1890983581543000,220.2774047851562500,409.2414855957031000,12.6027898788452150,34.1677093505859400,48,101,86,80,67,14699,2147732324,2147442121,2148050102,2147873472,2147601472,2147125549,2148231067,2147208027,530,4,14,31144
1363645971,5810,272.0000000000000000,13.3120002746582030,34.2431983947753900,220.7660980224609400,386.6304931640625000,13.3015499114990230,33.7920188903808600,48,103,88,79,67,14700,2147727076,2147450806,2148081453,2147874157,2147598582,2147137472,2148246820,2147209307,143,3,13,1428
1363646090,5810,261.9100036621094000,13.6309995651245120,34.2728996276855500,222.9819946289062500,376.3897094726562500,13.6173200607299800,33.5172691345214840,49,102,88,79,68,14695,2147724178,2147455094,2148095067,2147872905,2147593609,2147146130,2148243428,2147210752,23,4,13,45028
1363646265,5810,251.5599975585937500,14.6021003723144530,34.3699989318847660,223.9559020996093800,345.0943908691406000,14.5799798965454100,32.9972190856933600,47,105,85,81,67,14692,2147724443,2147473718,2148132059,2147875392,2147591213,2147162514,2148266395,2147208987,689,3,14,7519
1363646446,5810,238.9700012207031200,15.3828001022338870,34.4515991210937500,222.0390014648437500,318.6781921386719000,15.3902597427368160,32.7115783691406250,48,104,85,81,66,14691,2147726016,2147503222,2148202861,2147869138,2147588964,2147183350,2148291638,2147213924,1478,3,13,51585
1363646573,5807,228.3200073242187500,16.0223007202148440,34.5298995971679700,220.0670928955078000,298.5687866210937500,16.0059795379638670,32.5255813598632800,48,103,87,81,65,14693,2147731136,2147541083,2148282075,2147874642,2147589394,2147207588,2148328219,2147219456,2195,2,14,41832
1363646709,5808,215.8000030517578000,16.8974990844726560,34.6445999145507800,219.1322021484375000,269.3494873046875000,16.8994197845459000,32.1594886779785160,48,104,87,80,65,14684,2147746029,2147610176,2148413467,2147874221,2147590994,2147256822,2148390400,2147223570,1537,3,15,43016
1363646812,5808,204.8800048828125000,17.3768997192382800,34.7131996154785160,218.8081054687500000,253.2285003662109400,17.3919296264648440,31.9502391815185550,50,104,86,80,65,14682,2147769984,2147693046,2148568749,2147874797,2147600036,2147313526,2148469430,2147233545,2236,3,14,6212
1363646891,5808,196.3800048828125000,17.8013992309570300,34.7732009887695300,218.4897003173828000,239.0574035644531200,17.8247394561767580,31.7695007324218750,50,105,87,81,65,14681,2147799195,2147782171,2148729526,2147876288,2147612580,2147371410,2148548726,2147239186,2334,2,14,4984
1363646967,5808,188.8099975585937500,18.3006000518798830,34.8459014892578100,218.9705047607422000,223.6752929687500000,18.2944793701171880,31.5316390991210940,50,108,85,80,66,14677,2147837842,2147878390,2148907666,2147876900,2147624914,2147439926,2148638683,2147242989,2601,2,14,63139
1363647022,5810,184.1699981689453000,18.6490001678466800,34.9058990478515600,219.8027038574218800,211.6907043457031200,18.6604900360107420,31.3236808776855470,51,106,87,79,64,14677,2147853385,2147904256,2148936182,2147872374,2147635949,2147458724,2148660699,2147246820,2143,2,14,60343
1363647077,5808,179.8999938964843800,18.8446998596191400,34.9375000000000000,221.1688995361328000,206.1208038330078000,18.8306102752685550,31.1769905090332030,51,108,88,81,64,14672,2147865938,2147908571,2148915739,2147877595,2147636754,2147465984,2148654601,2147246034,1340,3,15,31852
1363647132,5809,175.6399993896484400,18.8647994995117200,34.9385986328125000,221.6779022216797000,203.8345947265625000,18.9004402160644530,31.1194496154785160,53,106,89,80,64,14676,2147901440,2147982006,2149048155,2147876544,2147653888,2147526372,2148725632,2147252571,1666,3,15,61500
1363647187,5808,171.5200042724609400,19.0657005310058600,34.9631996154785160,221.2658996582031200,197.8255004882812500,19.0840091705322270,31.0591697692871100,54,108,88,81,63,14664,2147938468,2148055131,2149168201,2147876973,2147672310,2147568768,2148776868,2147259181,1873,2,14,8453
1363647242,5810,167.7200012207031200,19.3803997039794920,35.0065002441406250,221.0052947998047000,187.0155029296875000,19.4143199920654300,30.9267692565917970,57,111,87,81,64,14662,2147975222,2148103424,2149238573,2147877430,2147684854,2147613750,2148838409,2147258020,2005,2,15,19918
1363647321,5813,162.8399963378906200,19.9295005798339840,35.0876998901367200,222.0641937255859400,170.5372009277343800,19.9180793762207030,30.6517906188964840,65,112,90,81,63,14660,2148142144,2148470674,2149913234,2147882358,2147761700,2147833865,2149151040,2147281243,1491,3,15,39153
1363647388,5807,159.3099975585937500,20.2164993286132800,35.1245994567871100,223.3511962890625000,161.7248992919922000,20.1876392364501950,30.4694194793701170,72,114,88,79,63,14648,2148227529,2148615003,2150149394,2147887021,2147800987,2147914852,2149254637,2147287597,1617,2,15,37685
1363647467,5806,155.0000000000000000,20.4979000091552730,35.1394004821777340,223.0778961181640600,152.6495971679687500,20.4653892517089840,30.3629302978515620,82,118,89,82,62,14632,2148363062,2148833846,2150498898,2147886299,2147853705,2148033353,2149403958,2147300964,1182,2,15,26556
1363647534,5809,151.4199981689453000,20.6331996917724600,35.1752014160156250,222.6515960693359400,145.3706054687500000,20.6882801055908200,30.2886009216308600,87,118,84,81,63,14631,2148500571,2149051584,2150828918,2147890578,2147906697,2148135113,2149536411,2147312274,188,1,15,46458
1363647615,5807,147.8000030517578000,20.9053001403808600,35.1745986938476560,223.3757019042968800,138.7339019775390600,20.8916091918945300,30.1647605895996100,91,119,89,81,63,14625,2148661257,2149297536,2151202404,2147892306,2147969691,2148250834,2149684662,2147324379,2322,2,16,28556
1363647718,5807,143.8200073242187500,21.0911998748779300,35.1911010742187500,224.1412963867187500,132.8117980957031200,21.0731201171875000,30.0488491058349600,97,124,90,82,62,14624,2148899081,2149633472,2151697901,2147899483,2148061257,2148411373,2149869924,2147344036,2347,2,15,6274
1363647845,5810,140.0200042724609400,21.2756996154785160,35.2043991088867200,225.2169036865234400,126.6117019653320300,21.2632598876953120,29.9146003723144530,100,122,90,82,62,14606,2149192621,2150016576,2152253238,2147909997,2148179794,2148576429,2150086080,2147359716,2450,2,15,2131
1363647969,5809,135.9600067138672000,21.4106998443603500,35.2104988098144500,225.9642944335937500,121.9252014160156200,21.4070396423339840,29.8166809082031250,104,124,91,83,62,14597,2149676891,2150621275,2153105947,2147918025,2148372544,2148851556,2150414994,2147383186,3051,2,16,46236
1363648072,5810,131.8600006103515600,21.5942001342773440,35.2252006530761700,226.4510040283203000,116.8470001220703100,21.5629100799560550,29.7269401550292970,108,129,91,83,62,14588,2150318674,2151394422,2154162560,2147931803,2148628324,2149193993,2150832777,2147422820,164,2,15,12121
1363648175,5811,127.5199966430664000,21.7185993194580080,35.2421989440918000,227.9486999511718800,111.2900009155273400,21.7335605621337900,29.5817203521728500,114,129,91,84,61,14588,2151180580,2152423250,2155528987,2147951222,2148993938,2149678509,2151371053,2147473947,1288,2,16,9100
1363648254,5808,123.5699996948242200,22.0030994415283200,35.2756004333496100,230.0310058593750000,103.0821990966796900,21.9857807159423830,29.3757190704345700,122,125,89,83,61,14576,2152142180,2153541952,2156960292,2147978102,2149406829,2150192420,2151943478,2147520182,1203,2,16,12788
1363648333,5807,119.0599975585937500,22.1193008422851560,35.2836990356445300,231.7821960449218800,98.6029663085937500,22.1235294342041000,29.2346000671386720,125,127,92,84,61,14563,2153509403,2155072694,2158862710,2148014281,2149993856,2150883602,2152697124,2147594294,605,2,15,28242
1363648400,5809,115.2500000000000000,22.3090000152587900,35.2953987121582000,233.0554046630859400,92.9267272949218800,22.2981700897216800,29.1018104553222660,137,127,92,84,60,14550,2155171401,2157017618,2161279442,2148065709,2150718875,2151725650,2153599003,2147678710,1077,2,16,37703
1363648479,5809,111.1699981689453100,22.4444007873535160,35.2919006347656250,234.8191986083984400,88.6734008789062500,22.4291095733642580,28.9651603698730470,149,127,91,84,61,14533,2157197906,2159300955,2163853385,2148124178,2151580297,2152661952,2154564498,2147778395,1821,2,15,16454
1363648561,5810,107.2500000000000000,22.4923992156982420,35.2995986938476560,236.2521057128906200,86.5662002563476600,22.4939994812011720,28.8717403411865230,144,131,90,83,59,14526,2159770304,2162156946,2166970093,2148198628,2152681453,2153836763,2155744795,2147896000,1639,2,16,53546
1363648640,5807,103.4300003051757800,22.6103000640869140,35.3138008117675800,237.7527008056640600,83.1053466796875000,22.6006202697753900,28.7587299346923830,145,129,88,84,58,14527,2163223341,2166035254,2171209005,2148311497,2154219428,2155469476,2157328777,2148061622,1655,1,16,25387
1363648719,5806,99.7699966430664000,22.7259006500244140,35.3224983215332000,238.7588043212890600,79.3181762695312500,22.7173404693603500,28.6649608612060550,130,126,91,84,59,14535,2167145920,2170298413,2175530962,2148449801,2156197449,2157550336,2159245184,2148264704,1471,2,16,5902
1363648774,5804,97.4100036621093800,22.8127002716064450,35.3328018188476560,239.3282012939453000,76.5510635375976600,22.8026599884033200,28.6042404174804700,121,125,93,83,58,14541,2169815250,2173147721,2178351862,2148535296,2157676726,2159062244,2160565686,2148398436,1265,2,16,33135
1363648829,5809,95.1699981689453100,22.8969001770019530,35.3395996093750000,240.1094970703125000,74.2369537353515600,22.8740406036376950,28.5396709442138670,104,122,91,83,58,14548,2172571117,2176080566,2181228781,2148644681,2159385243,2160863798,2162117110,2148555117,1124,2,16,42532
1363648887,5808,92.8899993896484400,22.9244995117187500,35.3440017700195300,241.0019989013672000,72.7244567871093800,22.9207000732421880,28.4804000854492200,101,123,88,83,58,14564,2175584685,2179290157,2184268653,2148797732,2161490057,2162975744,2163857270,2148737014,1700,1,16,21039
1363648942,5810,90.5899963378906200,22.9733009338378900,35.3507995605468750,241.7798004150390600,71.1901321411132800,22.9680404663085940,28.4261207580566400,96,122,89,85,58,14562,2178793691,2182631012,2187373778,2148951597,2163692077,2165200777,2165701796,2148924370,1898,1,16,39052
1363648997,5823,88.3300018310546900,22.9862003326416000,35.3531990051269500,242.4477996826172000,70.6752929687500000,22.9839305877685550,28.3897590637207030,92,122,89,83,57,14558,2182394176,2186523145,2191092077,2149114770,2166335296,2167880896,2167870546,2149145152,1776,2,16,33303
1363649052,5807,86.0500030517578100,23.0209007263183600,35.3572998046875000,242.7716979980468800,69.2986068725586000,23.0264205932617200,28.3581295013427730,90,122,92,84,58,14561,2186791789,2191194038,2195654509,2149310710,2169324132,2170982363,2170333732,2149392521,1341,1,16,45751
1363649107,5805,83.7399978637695300,23.0529003143310550,35.3610000610351560,243.3898925781250000,68.3970565795898400,23.0542507171630860,28.3193702697753900,85,124,90,82,59,14566,2191027693,2195396068,2199452470,2149592768,2172310217,2173848384,2172542838,2149625782,1113,1,16,8152
1363649162,5807,81.4300003051757800,23.1086006164550780,35.3672981262207000,243.8932037353515600,66.7977294921875000,23.1036300659179700,28.2769908905029300,79,123,92,84,58,14568,2195447378,2199875712,2203578669,2149863497,2176108013,2177627382,2175490962,2149916726,1031,2,16,20612
1363649220,5808,78.9100036621093800,23.1534004211425780,35.3717002868652340,244.5135955810547000,65.3482818603515600,23.1483993530273440,28.2314090728759770,74,124,91,84,58,14576,2199560804,2204022628,2207529746,2150209179,2180138733,2181595190,2178396763,2150220580,952,1,15,58999
1363649275,5809,76.4800033569336000,23.1692008972167970,35.3688011169433600,244.9449005126953000,64.6057586669921900,23.1713294982910160,28.2030906677246100,74,127,91,84,58,14565,2205056475,2209664886,2212821458,2150689133,2185258633,2186536155,2182108809,2150614482,1133,2,16,35935
1363649330,5809,73.9400024414062500,23.2068996429443360,35.3737983703613300,245.2557983398437500,63.3325500488281250,23.2106609344482420,28.1735801696777340,71,123,91,84,57,14569,2210928585,2215923565,2219060196,2151267794,2190627209,2191875830,2186099830,2151045394,1202,1,16,16229
1363649385,5810,71.3499984741211000,23.2423992156982420,35.3786010742187500,245.7707061767578000,62.3422889709472660,23.2412490844726560,28.1386508941650400,69,125,91,84,57,14552,2216788251,2221613513,2224712530,2151874048,2196436489,2197438354,2190141238,2151483483,760,2,16,19459
1363649440,5809,68.7099990844726600,23.2448997497558600,35.3781013488769500,245.9893035888672000,62.1680183410644500,23.2466392517089840,28.1268501281738280,69,126,90,84,59,14544,2223917202,2228910217,2231968978,2152743094,2203457490,2204303259,2195268598,2152045257,587,1,15,65228
1363649495,5808,66.0299987792968800,23.2807006835937500,35.3792991638183600,246.0272064208984400,61.1939811706543000,23.2767295837402340,28.1129703521728500,67,127,91,85,56,14541,2230146861,2234898432,2237764626,2153680969,2210120073,2210566025,2199776091,2152624082,338,2,15,39566
1363649553,5807,63.3400001525878900,23.2896003723144530,35.3802986145019500,246.1941986083984400,60.6973304748535160,23.2920799255371100,28.0996799468994140,68,126,92,85,56,14541,2238805787,2243910564,2246595958,2154758619,2218465243,2218614537,2205642432,2153291264,575,1,15,9822
1363649608,5804,60.8499984741210940,23.3001003265380860,35.3810005187988300,246.1389007568359400,60.0715408325195300,23.3114204406738280,28.0943202972412100,65,126,90,85,54,14537,2246231076,2251289216,2253903899,2156375076,2226369024,2226100297,2210992804,2154032795,607,2,16,42343
1363649663,5809,58.4099998474121100,23.3404998779296880,35.3819007873535160,246.0915985107422000,59.0278701782226560,23.3436794281005860,28.0833492279052730,64,127,90,87,58,14538,2254009280,2259056475,2261161206,2157843785,2235275730,2234410688,2216884507,2154858139,791,1,16,39398
1363649718,5805,56.1800003051757800,23.3512992858886720,35.3797988891601560,246.1867980957031200,58.5515785217285160,23.3584003448486330,28.0733604431152340,65,128,94,85,59,14538,2264663789,2270428772,2272970742,2159337664,2244748781,2243470628,2223410212,2155802450,669,1,16,60525
1363649773,5808,54.1199989318847660,23.3848991394042970,35.3793983459472660,246.0507965087890600,57.5502014160156250,23.3893604278564450,28.0668201446533200,63,125,93,85,54,14543,2270324726,2275220160,2277253202,2161367012,2252998180,2251173531,2229003638,2156570148,318,2,16,64720
1363649828,5805,52.2400016784668000,23.3971004486084000,35.3782005310058600,246.1569976806640600,57.0195198059082000,23.4057693481445300,28.0554790496826170,59,128,92,86,55,14538,2276032128,2280757595,2282719149,2162974820,2261342445,2258787200,2234095341,2157268982,334,1,16,52465
1363649886,5806,50.4300003051757800,23.4249992370605470,35.3574981689453100,246.0697021484375000,56.1109809875488300,23.4338703155517580,28.0480709075927730,61,127,92,87,57,14535,2281854281,2286262125,2287689097,2164269302,2268739648,2265287734,2238150564,2157904466,485,1,16,38529
1363649941,5808,48.9300003051757800,23.4402999877929700,35.3538017272949200,245.8957977294922000,55.5052604675293000,23.4526004791259770,28.0480594635009770,59,128,92,85,55,14531,2288235849,2292129517,2293381421,2166323940,2275284224,2270917814,2242001709,2158672210,3492,2,16,11298
1363650008,5808,47.3199996948242200,23.4792003631591800,35.3538017272949200,245.6544952392578000,54.1545486450195300,23.4943809509277340,28.0418891906738280,59,129,92,85,55,14525,2298561517,2303544173,2305425334,2169405165,2286798500,2282089801,2250152694,2159848658,2996,2,16,62347
1363650099,5809,45.3300018310546900,23.5569000244140620,35.3521995544433600,245.1486968994140600,51.8381690979003900,23.5660400390625000,28.0354804992675780,57,127,94,85,53,14528,2310508754,2316676077,2318909348,2173181805,2297125147,2290677302,2255463771,2160891931,2653,1,16,6751
1363650213,5807,42.6699981689453100,23.6798992156982420,35.3499984741210940,243.9579010009765600,48.0513916015625000,23.6832504272460940,28.0409202575683600,56,124,91,84,56,14532,2320134390,2325375899,2326971565,2176650221,2319745910,2311255606,2269592740,2163099483,2763,2,16,14937
1363650268,5806,40.5499992370605500,23.6895999908447270,35.3502998352050800,243.6311035156250000,47.5863990783691400,23.6976509094238280,28.0494709014892580,56,121,93,85,54,14526,2328875346,2333591945,2335185910,2181229942,2331559140,2320966016,2275402432,2164368978,2949,2,17,25927
1363650323,5804,38.2500000000000000,23.6923007965087900,35.3493995666503900,243.6206054687500000,47.3740692138671900,23.7042198181152340,28.0473098754882800,54,122,92,84,59,14536,2341064036,2346408521,2349241005,2187588187,2351532918,2339072018,2287953892,2166551862,3064,1,16,16852
1363650378,5806,35.8400001525878900,23.6956996917724600,35.3478012084960940,243.4891967773437500,47.2358894348144500,23.7084999084472660,28.0513591766357420,54,121,90,86,53,14531,2353825892,2359436077,2362397101,2192903926,2366243794,2350965147,2295003081,2167881563,2960,1,17,40745
1363650433,5813,33.4000015258789060,23.6989994049072270,35.3470001220703100,243.4118957519531200,47.0406684875488300,23.7145500183105470,28.0523605346679700,54,122,88,85,56,14531,2367608832,2373690578,2377427666,2202842752,2388548132,2370739190,2308476772,2171502272,2796,1,16,16784
1363650488,5808,30.8999996185302730,23.7014007568359380,35.3464012145996100,243.3690032958984400,46.9845085144043000,23.7162895202636720,28.0535793304443360,54,121,89,82,56,14536,2381058313,2389012598,2394664100,2214032777,2408622838,2387580736,2319407497,2174271625,2657,1,17,46105
1363650546,5816,28.2199993133544920,23.7035007476806640,35.3457984924316400,243.4064025878906200,46.9085884094238300,23.7186393737792970,28.0510597229003900,54,122,90,85,57,14533,2392516653,2400047661,2406347757,2225344027,2436639186,2412489060,2336366857,2179096868,2714,1,16,39071
1363650601,5806,25.7000007629394530,23.7075004577636720,35.3452987670898440,243.5751037597656200,46.7166099548339840,23.7245807647705080,28.0412406921386720,53,120,93,84,55,14536,2405039204,2412948900,2421170733,2240740114,2456759003,2429849920,2348248539,2183249517,2806,2,16,18209
